Temperature
10 10 9 9 9 8 8 7 7 6 5 5 5 4 4 4 4 3 3 3 3 4 4 3 3 3 3 3 2 2 2 2 1 0 -0 -0 -1 -1
9 9 9 8 8 8 7 7 6 5 5 4 4 4 3 3 3 3 2 2 3 3 3 2 2 2 2 1 1 1 1 0 -0 -1 -1 -1 -1 -2
8 8 8 8 8 7 7 6 5 4 4 3 3 3 2 2 2 2 1 2 2 2 1 1 1 1 0 0 0 -0 -0 -1 -1 -2 -2 -2 -2 -2
7 7 7 7 7 6 6 5 4 3 3 2 2 2 2 1 1 1 1 1 1 1 0 0 -0 -1 -1 -1 -1 -1 -2 -2 -2 -2 -3 -3 -3 -3
7 7 6 6 5 5 4 3 2 2 2 2 2 1 1 1 0 0 -0 -0 -1 -1 -1 -1 -1 -2 -2 -2 -2 -3 -3 -3 -3 -3 -3 -3 -3 -3
5 5 5 4 3 2 2 1 1 1 1 1 1 1 1 -0 -0 -1 -1 -1 -2 -2 -2 -2 -2 -3 -3 -3 -3 -3 -3 -3 -3 -3 -3 -3 -3 -3
4 3 2 2 1 1 1 1 0 0 0 0 0 -0 -1 -1 -2 -3 -3 -3 -3 -3 -3 -3 -3 -3 -3 -3 -3 -3 -3 -4 -4 -4 -4 -4 -4 -4
1 1 1 0 -0 -0 -0 -0 -0 -1 -1 -1 -1 -2 -2 -3 -4 -4 -4 -4 -4 -4 -4 -3 -4 -3 -3 -3 -3 -3 -4 -4 -4 -4 -4 -4 -4 -4
-0 -0 -1 -1 -1 -1 -1 -1 -1 -2 -2 -2 -3 -3 -4 -4 -5 -5 -5 -5 -5 -5 -6 -4 -3 -4 -3 -3 -3 -3 -4 -4 -4 -4 -4 -4 -4 -4
-1 -1 -1 -1 -2 -2 -2 -2 -3 -3 -3 -4 -4 -4 -5 -5 -6 -6 -6 -6 -5 -5 -6 -5 -4 -4 -3 -3 -3 -3 -3 -4 -4 -4 -4 -4 -5 -5
-2 -2 -2 -2 -3 -3 -3 -4 -4 -4 -5 -5 -5 -5 -6 -6 -6 -6 -6 -7 -6 -5 -5 -6 -5 -5 -3 -2 -2 -3 -3 -4 -4 -4 -4 -4 -5 -5
-2 -3 -3 -3 -4 -4 -4 -5 -5 -6 -6 -6 -6 -6 -6 -6 -6 -7 -7 -7 -7 -7 -6 -7 -6 -7 -6 -3 -3 -3 -3 -3 -4 -4 -4 -4 -5 -5
-4 -4 -4 -4 -5 -5 -5 -6 -6 -6 -6 -6 -6 -6 -7 -7 -7 -7 -7 -7 -7 -7 -7 -8 -7 -7 -8 -7 -4 -3 -3 -4 -4 -4 -4 -4 -5 -5
-5 -5 -5 -6 -6 -6 -6 -6 -7 -7 -6 -6 -7 -7 -7 -7 -7 -7 -7 -7 -7 -7 -7 -7 -7 -7 -8 -8 -6 -4 -4 -4 -4 -4 -4 -5 -5 -6
-6 -6 -6 -6 -6 -6 -6 -7 -7 -7 -7 -7 -7 -7 -7 -7 -7 -7 -7 -7 -7 -6 -6 -7 -7 -7 -8 -8 -8 -6 -5 -4 -4 -5 -5 -6 -6 -6
-6 -6 -6 -6 -7 -7 -7 -7 -7 -7 -7 -7 -7 -7 -7 -7 -7 -7 -7 -7 -7 -6 -6 -6 -7 -7 -8 -8 -8 -7 -6 -6 -5 -5 -6 -6 -5 -6
-7 -7 -7 -7 -7 -8 -8 -8 -8 -8 -8 -8 -8 -8 -7 -7 -7 -7 -7 -7 -7 -7 -6 -6 -7 -7 -8 -8 -8 -7 -6 -6 -6 -6 -7 -7 -6 -6
-7 -7 -8 -8 -8 -8 -8 -8 -8 -8 -8 -8 -8 -8 -8 -8 -8 -7 -8 -8 -8 -7 -7 -7 -7 -8 -8 -8 -7 -7 -7 -7 -7 -7 -8 -8 -7 -6
-8 -8 -8 -8 -8 -8 -8 -8 -8 -8 -8 -8 -8 -8 -8 -8 -8 -8 -8 -8 -8 -8 -8 -8 -8 -9 -10 -9 -8 -7 -8 -8 -8 -7 -7 -8 -8 -6
-8 -8 -8 -8 -8 -8 -8 -8 -8 -8 -8 -8 -8 -8 -8 -9 -9 -8 -8 -9 -9 -8 -8 -8 -8 -8 -9 -9 -9 -7 -7 -8 -8 -8 -7 -7 -7 -7
-8 -8 -8 -8 -8 -8 -9 -9 -8 -8 -8 -8 -8 -8 -9 -9 -9 -9 -9 -9 -9 -9 -9 -8 -8 -8 -9 -9 -9 -8 -7 -7 -8 -8 -8 -8 -8 -7
-8 -8 -8 -8 -8 -8 -9 -9 -8 -8 -8 -8 -9 -9 -9 -9 -9 -9 -9 -9 -9 -9 -9 -8 -8 -8 -9 -9 -9 -8 -7 -7 -7 -7 -8 -8 -8 -8
-8 -8 -8 -8 -8 -8 -9 -8 -8 -8 -8 -9 -9 -9 -9 -9 -9 -9 -9 -9 -9 -9 -9 -9 -8 -9 -9 -9 -9 -9 -8 -8 -7 -7 -7 -7 -7 -7
Wind_Speed
9 9 6 4 4 4 4 5 7 6 7 3 2 2 6 9 12 9 7 8 9 10 11 13 14 15 16 17 18 19 19 19 20 20 20 21 21 21
4 5 4 3 3 3 4 3 4 5 5 4 3 2 5 7 8 6 5 7 11 13 15 15 16 17 17 18 19 20 20 20 20 21 21 21 21 22
2 3 3 4 4 3 3 3 3 4 4 3 2 2 3 4 5 5 7 10 11 14 16 16 17 18 18 19 20 20 21 21 21 21 21 22 22 22
4 5 5 5 6 5 4 4 4 3 4 4 3 4 4 4 4 4 8 10 11 14 16 17 18 18 19 20 20 20 20 21 21 21 22 22 23 23
5 6 7 8 7 5 6 5 4 4 3 4 4 2 2 3 4 5 7 7 11 12 14 16 17 18 19 19 20 20 20 21 22 22 23 23 24 25
7 7 7 7 7 7 6 6 5 4 4 5 3 2 2 3 3 4 4 4 5 8 12 15 16 17 18 19 20 21 21 22 22 22 23 23 24 24
9 8 8 8 8 6 5 5 4 3 3 3 2 2 2 2 3 3 3 3 4 4 4 7 9 11 15 19 21 21 22 21 21 21 22 23 24 24
9 9 8 7 8 8 8 6 4 2 2 2 2 2 2 3 2 1 1 1 3 3 3 6 6 8 12 16 20 22 22 22 22 22 23 23 24 25
8 7 6 6 7 4 5 4 1 0 1 1 1 2 2 1 1 1 2 4 5 4 5 8 6 9 12 17 21 22 22 22 22 22 22 23 23 24
7 6 5 5 4 3 3 2 1 2 2 1 2 2 2 2 3 3 4 4 5 5 4 6 6 7 9 14 20 22 22 21 20 20 21 22 22 23
5 5 4 3 3 3 2 2 3 3 4 4 5 7 9 10 9 3 3 3 5 5 3 4 4 5 6 8 13 15 15 17 20 22 23 23 23 23
2 2 3 3 3 3 2 2 3 3 3 4 5 7 7 9 11 5 4 4 4 4 3 2 3 4 5 4 4 8 12 18 22 22 22 23 22 17
2 1 1 2 4 6 5 3 5 4 3 4 5 5 5 4 5 5 4 5 5 6 4 2 3 3 4 7 6 5 6 8 12 16 21 24 24 18
2 2 2 4 6 7 6 6 8 7 3 4 4 4 4 4 3 3 6 7 9 10 11 7 6 7 9 12 10 7 6 7 8 10 12 19 18 19
2 4 5 7 7 6 7 8 7 3 3 4 4 4 4 4 3 4 6 9 12 14 17 16 11 11 11 12 12 12 11 9 8 7 6 6 8 9
3 5 7 8 7 7 7 5 3 4 4 3 4 4 4 4 4 4 5 5 7 8 9 16 15 12 12 13 14 15 12 9 9 10 11 12 10 11
5 3 4 3 3 3 3 4 3 3 4 3 4 5 6 5 6 5 5 6 8 10 10 6 9 12 12 13 14 15 15 14 13 12 12 14 12 10
6 4 4 4 3 3 4 4 4 4 4 4 4 5 7 8 8 7 7 8 9 10 11 9 8 9 8 10 16 16 14 13 12 11 11 14 16 10
4 4 4 4 4 4 4 4 4 5 4 5 6 6 7 8 8 9 9 9 10 11 11 9 8 9 12 14 8 13 12 11 11 12 12 13 16 14
3 4 4 4 4 4 5 5 5 5 5 6 7 7 7 8 9 9 9 10 11 11 11 9 9 9 12 14 13 12 14 14 13 14 14 13 14 18
4 4 4 5 5 5 5 5 6 6 7 7 7 8 8 8 9 10 10 14 13 11 12 12 11 15 12 10 12 13 10 15 18 15 14 14 16 15
5 5 5 5 5 5 6 6 6 7 8 8 8 8 8 9 10 11 11 11 11 12 14 13 11 11 10 13 16 18 18 13 14 23 25 23 15 11
5 5 5 6 6 6 6 7 8 8 8 8 9 9 9 10 10 10 11 12 12 13 14 14 12 11 12 13 15 16 18 18 14 13 13 19 25 28
Wind_Direction
223 218 214 202 190 180 165 170 173 186 207 191 178 154 141 146 163 170 188 214 240 260 271 279 284 285 286 287 287 287 286 285 283 282 280 279 278 277
211 206 201 172 159 156 164 161 170 176 182 172 178 152 152 164 173 182 212 245 259 267 274 277 279 281 283 284 285 285 284 283 282 281 280 279 278 277
151 160 150 129 130 125 130 142 145 147 154 144 135 137 160 171 184 212 241 252 258 266 272 276 279 282 284 284 284 284 283 282 281 280 279 279 278 278
119 118 118 116 112 112 117 119 121 121 141 154 158 165 181 186 195 223 243 250 252 264 272 277 280 283 284 284 284 283 281 281 279 279 278 278 278 279
100 113 118 119 115 112 111 112 108 98 104 137 144 147 165 186 203 229 240 248 257 266 276 282 286 288 286 286 285 284 282 281 279 278 277 277 277 278
84 95 103 113 120 119 114 111 107 100 103 117 126 143 171 188 198 224 245 242 256 271 279 283 287 290 290 290 289 288 285 282 279 278 277 276 275 275
78 79 86 102 116 114 117 116 115 115 120 129 143 157 182 193 212 214 234 262 276 269 271 280 288 288 287 287 287 286 284 282 280 278 278 277 276 275
81 75 78 81 94 98 109 113 116 127 143 150 163 185 208 218 209 198 217 295 292 291 309 289 284 280 278 276 281 284 284 284 284 282 281 280 278 277
73 72 72 67 63 61 81 88 79 37 198 169 201 233 244 227 196 246 249 247 253 265 295 289 275 276 277 281 287 289 290 290 289 288 285 283 281 279
69 71 76 73 65 53 46 48 323 278 256 236 215 251 263 246 218 229 243 266 271 270 264 276 280 276 282 281 287 289 291 292 292 292 291 289 286 283
67 64 64 64 54 32 21 328 307 301 292 279 272 276 279 279 274 265 273 287 291 284 247 253 281 293 284 279 283 291 295 299 300 299 296 294 291 288
71 69 60 39 7 357 3 340 322 324 348 337 314 301 292 285 282 253 211 228 257 285 273 278 294 329 309 281 273 289 293 294 296 297 296 296 296 294
29 25 50 12 348 336 335 334 311 319 326 310 299 293 291 278 270 255 220 206 225 248 256 289 280 271 269 292 289 265 270 282 291 293 294 295 294 290
15 28 11 343 331 326 322 312 312 320 319 301 295 291 290 286 281 277 274 264 251 254 263 258 265 272 281 287 289 289 282 276 280 285 285 291 291 289
352 343 330 322 323 324 315 313 320 320 304 296 292 287 279 273 275 280 277 272 266 264 264 258 255 265 267 273 278 286 297 294 278 272 277 277 276 279
348 329 321 310 303 297 298 301 285 262 277 274 281 283 287 288 281 273 275 281 282 277 259 258 252 252 263 265 271 279 280 278 285 283 284 283 275 266
332 329 310 300 298 297 293 288 282 284 290 276 278 289 297 296 293 295 286 287 281 288 292 278 257 252 252 261 271 272 274 275 273 277 282 285 279 265
328 317 306 309 310 312 313 310 308 301 290 283 285 290 294 295 296 295 289 285 283 284 286 290 290 288 276 258 244 260 266 269 273 271 269 280 285 275
304 293 296 300 296 293 289 287 287 287 286 282 281 281 283 286 288 288 287 284 282 282 283 283 280 282 288 292 265 231 249 271 278 279 276 273 279 282
277 276 280 284 285 283 281 281 282 287 286 283 281 279 279 280 281 280 279 278 282 284 285 278 268 264 269 281 286 277 256 261 272 277 280 278 276 278
291 285 278 278 277 276 275 275 275 277 277 277 278 276 274 273 274 274 276 279 281 282 282 281 273 277 277 279 279 278 269 252 252 262 274 282 286 288
277 277 276 275 272 271 271 272 274 274 275 273 274 274 272 270 272 274 275 277 277 276 278 281 281 280 274 274 276 283 289 284 266 264 263 263 272 278
269 270 271 272 270 270 269 269 271 274 272 272 273 273 272 272 272 273 274 275 276 278 281 285 285 279 274 272 276 280 284 288 289 285 275 264 260 261
Height
1481 1482 1482 1483 1483 1484 1486 1487 1489 1488 1488 1489 1490 1491 1494 1496 1497 1499 1501 1503 1504 1505 1505 1504 1503 1502 1501 1500 1499 1498 1496 1495 1494 1494 1493 1493 1493 1494
1475 1475 1476 1476 1477 1477 1478 1479 1480 1481 1482 1482 1484 1486 1488 1490 1492 1494 1495 1497 1497 1497 1497 1496 1495 1494 1492 1491 1490 1489 1488 1487 1486 1486 1486 1486 1486 1486
1468 1469 1469 1470 1470 1470 1471 1472 1473 1475 1476 1476 1479 1481 1483 1485 1486 1488 1490 1490 1490 1490 1489 1488 1487 1485 1484 1483 1482 1481 1480 1479 1478 1478 1478 1478 1478 1478
1462 1463 1463 1463 1463 1464 1465 1466 1467 1469 1471 1473 1474 1476 1478 1480 1481 1482 1483 1483 1483 1482 1481 1480 1479 1477 1476 1475 1474 1473 1472 1471 1470 1470 1470 1470 1470 1470
1456 1457 1457 1458 1458 1459 1460 1462 1464 1465 1467 1469 1470 1472 1474 1475 1476 1476 1476 1476 1476 1475 1474 1473 1472 1470 1469 1468 1467 1466 1465 1464 1463 1462 1462 1462 1461 1461
1452 1452 1453 1454 1455 1456 1458 1459 1461 1463 1464 1465 1467 1468 1469 1469 1470 1470 1470 1470 1470 1469 1467 1466 1465 1464 1463 1462 1460 1459 1458 1456 1455 1455 1454 1453 1453 1452
1449 1449 1450 1452 1453 1455 1457 1458 1460 1461 1462 1462 1463 1463 1464 1464 1464 1464 1464 1464 1463 1463 1461 1460 1459 1457 1457 1455 1454 1452 1451 1450 1449 1448 1447 1446 1445 1444
1448 1449 1451 1452 1454 1455 1456 1457 1459 1459 1459 1459 1459 1459 1460 1460 1460 1460 1459 1459 1457 1458 1455 1454 1453 1451 1450 1449 1447 1446 1444 1443 1442 1441 1439 1438 1437 1436
1450 1451 1452 1453 1454 1455 1455 1456 1456 1457 1457 1457 1456 1456 1456 1456 1456 1455 1455 1454 1452 1452 1450 1446 1447 1445 1444 1443 1441 1440 1438 1437 1435 1434 1432 1430 1428 1427
1452 1453 1453 1453 1454 1454 1454 1454 1454 1454 1453 1453 1453 1452 1452 1452 1452 1451 1450 1448 1447 1447 1446 1441 1440 1439 1437 1436 1435 1433 1432 1430 1428 1426 1424 1422 1420 1418
1453 1453 1453 1453 1453 1452 1452 1452 1451 1451 1450 1450 1449 1449 1448 1448 1447 1447 1445 1444 1442 1441 1441 1438 1435 1432 1429 1429 1428 1427 1425 1423 1421 1418 1416 1413 1411 1409
1454 1453 1452 1452 1451 1451 1450 1449 1448 1447 1447 1446 1446 1445 1445 1444 1443 1443 1442 1441 1439 1437 1435 1434 1431 1428 1422 1419 1420 1419 1417 1415 1413 1410 1407 1405 1402 1400
1453 1452 1451 1450 1449 1448 1447 1446 1446 1445 1444 1443 1442 1442 1441 1440 1440 1439 1438 1437 1435 1433 1433 1431 1427 1424 1421 1414 1410 1410 1409 1406 1403 1401 1398 1396 1394 1391
1452 1451 1449 1448 1447 1446 1445 1444 1443 1442 1441 1440 1439 1438 1438 1437 1436 1435 1434 1433 1431 1429 1428 1426 1423 1420 1416 1410 1404 1401 1400 1398 1395 1392 1390 1388 1386 1383
1450 1449 1448 1446 1445 1444 1443 1442 1441 1439 1438 1437 1436 1435 1434 1433 1432 1431 1429 1427 1425 1424 1422 1420 1417 1414 1411 1405 1399 1395 1392 1389 1388 1385 1382 1379 1376 1374
1448 1447 1446 1444 1443 1442 1440 1439 1438 1437 1435 1434 1433 1432 1431 1429 1428 1426 1423 1421 1418 1416 1416 1414 1411 1408 1403 1399 1395 1389 1386 1383 1380 1378 1374 1370 1368 1365
1446 1444 1443 1442 1440 1439 1438 1436 1435 1434 1433 1431 1430 1428 1426 1424 1423 1421 1418 1415 1412 1409 1407 1406 1404 1400 1396 1393 1387 1383 1379 1376 1373 1370 1366 1360 1357 1356
1444 1442 1440 1439 1438 1436 1435 1434 1432 1431 1429 1428 1426 1424 1421 1419 1417 1415 1413 1410 1406 1403 1400 1398 1395 1391 1388 1383 1381 1376 1372 1368 1365 1362 1359 1353 1347 1346
1441 1439 1438 1436 1435 1433 1432 1430 1429 1427 1426 1423 1421 1419 1417 1414 1412 1409 1406 1404 1400 1397 1394 1392 1389 1385 1381 1374 1370 1370 1366 1361 1357 1354 1351 1347 1340 1336
1438 1436 1435 1433 1432 1430 1428 1427 1425 1423 1421 1419 1417 1414 1412 1409 1406 1403 1401 1398 1394 1390 1386 1384 1382 1379 1375 1369 1362 1357 1359 1355 1350 1345 1341 1337 1332 1328
1435 1433 1432 1430 1428 1426 1425 1423 1421 1419 1416 1414 1412 1409 1407 1404 1400 1397 1394 1391 1388 1384 1379 1376 1375 1373 1368 1362 1355 1347 1346 1346 1343 1339 1334 1330 1324 1319
1432 1430 1428 1426 1424 1422 1420 1418 1416 1414 1411 1409 1406 1403 1401 1398 1394 1391 1388 1384 1381 1377 1372 1368 1365 1363 1359 1354 1347 1340 1335 1333 1332 1330 1327 1323 1319 1312
1428 1426 1424 1422 1420 1418 1416 1413 1411 1408 1406 1403 1400 1397 1394 1391 1388 1384 1381 1377 1373 1369 1365 1360 1356 1353 1349 1345 1340 1333 1327 1323 1320 1316 1312 1311 1309 1305